Weather History for Dalhart, TX

Change the Weather History Date:

Wednesday, December 5, 2012

  Actual Average Record
Temperature  
Mean Temperature 45 °F 36 °F  
Max Temperature 61 °F 51 °F 70 °F (1989)
Min Temperature 29 °F 21 °F 3 °F (1972)
Degree Days  
Heating Degree Days 20 29  
Month to date heating degree days 74 143  
Since 1 July heating degree days 882 1138  
Cooling Degree Days 0 0  
Month to date cooling degree days 0 0  
Year to date cooling degree days 1648 1138  
Moisture  
Dew Point 24 °F    
Average Humidity 46    
Maximum Humidity 69    
Minimum Humidity 23    
Precipitation  
Precipitation 0.00 in 0.02 in 0.32 in (1992)
Month to date precipitation 0.00 0.08  
Year to date precipitation 6.35 17.13  
Snow  
Snow 0.00 in 0.10 in 3.30 in (1992)
Month to date snowfall 0.0 0.6  
Since 1 July snowfall 0.0 2.5  
Snow Depth 0.00 in    
Sea Level Pressure  
Sea Level Pressure 30.06 in    
Wind  
Wind Speed 11 mph (SSW)    
Max Wind Speed 22 mph    
Max Gust Speed 24 mph    
Visibility 10 miles    
Events      
T = Trace of Precipitation, MM = Missing Value Source: NWS Daily Summary

Daily Weather History Graph

Daily Weather History Graph

Search for Another Location

Airport:

Trip Planner

Search our weather history database for the weather conditions in past years. The results will help you decide how hot, cold, wet, or windy it might be!

Date:

Astronomy

Dec. 05, 2012 Rise Set
Actual Time 7:46 AM CST 5:35 PM CST
Civil Twilight 7:18 AM CST 6:04 PM CST
Nautical Twilight 6:46 AM CST 6:35 PM CST
Astronomical Twilight 6:15 AM CST 7:06 PM CST
Moon No Moon Rise 12:19 PM CST (12/5)
Length of Visible Light 10h 46m
Length of Day
9h 49m
Waning Gibbous, 59% of the Moon is Illuminated
Dec 5
Waning Gibbous
Dec 6
Last Quarter
Dec 13
New
Dec 19
First Quarter
Dec 28
Full

Hourly Weather History & Observations

Time (CST) Temp. Windchill Dew Point Humidity Pressure Visibility Wind Dir Wind Speed Gust Speed Precip Events Conditions
12:53 AM 34.0 °F 25.5 °F 23.0 °F 64% 30.25 in 10.0 mi SSW 11.5 mph - N/A   Clear
1:53 AM 30.9 °F 24.3 °F 21.0 °F 67% 30.24 in 10.0 mi South 6.9 mph - N/A   Clear
2:53 AM 32.0 °F 24.2 °F 21.9 °F 66% 30.23 in 10.0 mi South 9.2 mph - N/A   Clear
3:53 AM 33.1 °F 25.5 °F 21.9 °F 64% 30.22 in 10.0 mi SSW 9.2 mph - N/A   Clear
4:53 AM 32.0 °F 24.8 °F 21.0 °F 64% 30.22 in 10.0 mi SSW 8.1 mph - N/A   Clear
5:53 AM 32.0 °F 23.6 °F 21.0 °F 64% 30.22 in 10.0 mi South 10.4 mph - N/A   Clear
6:53 AM 32.0 °F 25.6 °F 23.0 °F 69% 30.23 in 10.0 mi SSW 6.9 mph - N/A   Clear
8:53 AM 39.9 °F 33.4 °F 28.0 °F 63% 30.21 in 10.0 mi SSW 10.4 mph - N/A   Clear
9:53 AM 45.0 °F 38.9 °F 28.9 °F 53% 30.19 in 10.0 mi South 12.7 mph - N/A   Clear
10:53 AM 48.9 °F - 30.0 °F 48% 30.16 in 10.0 mi South 17.3 mph - N/A   Clear
11:53 AM 53.1 °F - 28.9 °F 40% 30.12 in 10.0 mi SW 18.4 mph - N/A   Clear
12:53 PM 53.1 °F - 28.9 °F 40% 30.05 in 10.0 mi SSW 16.1 mph - N/A   Clear
1:53 PM 57.0 °F - 27.0 °F 32% 30.02 in 10.0 mi SSW 16.1 mph - N/A   Clear
2:53 PM 60.1 °F - 24.1 °F 25% 29.96 in 10.0 mi SSW 13.8 mph - N/A   Clear
3:53 PM 61.0 °F - 24.1 °F 24% 29.93 in 10.0 mi South 13.8 mph - N/A   Clear
4:53 PM 59.0 °F - 21.9 °F 24% 29.92 in 10.0 mi South 11.5 mph - N/A   Clear
5:53 PM 50.0 °F - 19.9 °F 31% 29.93 in 10.0 mi South 9.2 mph - N/A   Clear
6:53 PM 44.1 °F 41.5 °F 21.0 °F 40% 29.94 in 10.0 mi SSE 4.6 mph - N/A   Clear
7:53 PM 45.0 °F 43.5 °F 19.9 °F 37% 29.91 in 10.0 mi SSE 3.5 mph - N/A   Clear
8:53 PM 43.0 °F 38.8 °F 19.0 °F 38% 29.88 in 10.0 mi South 6.9 mph - N/A   Clear
9:53 PM 48.9 °F - 23.0 °F 36% 29.83 in 10.0 mi South 13.8 mph - N/A   Clear
10:53 PM 43.0 °F 37.2 °F 21.9 °F 43% 29.82 in 10.0 mi South 10.4 mph - N/A   Clear
11:53 PM 43.0 °F 39.5 °F 21.9 °F 43% 29.80 in 10.0 mi SSW 5.8 mph - N/A   Clear